Location: Dover
(39.1580°N, 75.5250°W)
Time: 17:10:31
(UTC-05:00)

SeaSat 1 - Visible Passes

Search period start: 23 November 2014 00:00
Search period end: 03 December 2014 00:00
Orbit: 747 x 749 km, 108.0° (Epoch: 22 November)

Date Brightness Start Highest point End Pass type
(mag) Time Alt. Az. Time Alt. Az. Time Alt. Az.
23 Nov 2.7 04:32:44 10° SSE 04:36:41 55° S 04:36:41 55° S visible
23 Nov 2.3 18:20:12 22° NNE 18:23:29 80° ESE 18:28:24 10° SSW visible
23 Nov 4.9 20:00:03 15° NW 20:00:26 15° NW 20:03:15 10° W visible
24 Nov 4.0 03:51:31 10° SE 03:54:29 32° ESE 03:54:29 32° ESE visible
24 Nov 3.6 05:30:04 10° SSW 05:33:52 22° WSW 05:34:19 22° W visible
24 Nov 3.4 17:38:02 13° NE 17:41:48 29° ESE 17:46:03 10° SSE visible
24 Nov 3.8 19:17:53 29° NNW 19:19:20 35° WNW 19:23:47 10° WSW visible
25 Nov 5.3 03:11:36 10° E 03:12:16 13° E 03:12:16 13° E visible
25 Nov 2.4 04:47:16 10° SSE 04:52:06 61° WSW 04:52:06 61° WSW visible
25 Nov 2.3 18:35:44 34° NNE 18:37:58 89° ESE 18:42:53 10° SSW visible
25 Nov 5.2 20:15:35 14° WNW 20:15:35 14° WNW 20:17:18 10° WNW visible
26 Nov 3.4 04:05:54 10° SE 04:09:52 46° E 04:09:52 46° E visible
26 Nov 3.8 05:44:52 10° SSW 05:48:24 20° WSW 05:49:43 18° W visible
26 Nov 3.2 17:53:35 19° ENE 17:56:19 33° ESE 18:00:43 10° S visible
26 Nov 3.9 19:33:26 31° NW 19:33:47 32° NW 19:38:06 10° WSW visible
27 Nov 5.0 03:25:47 10° E 03:27:38 17° E 03:27:38 17° E visible
27 Nov 2.5 05:01:49 10° S 05:06:37 54° WSW 05:07:28 47° WNW visible
27 Nov 4.3 17:12:44 10° E 17:14:24 12° ESE 17:16:04 10° ESE visible
27 Nov 2.4 18:51:17 54° NNE 18:52:26 81° WNW 18:57:21 10° SSW visible
27 Nov 5.5 20:31:08 10° WNW 20:31:08 10° WNW 20:31:15 10° WNW visible
28 Nov 2.9 04:20:17 10° SE 04:25:06 57° ENE 04:25:13 57° NE visible
28 Nov 4.0 05:59:42 10° SW 06:02:55 17° WSW 06:05:04 14° WNW visible
28 Nov 3.0 18:09:08 29° ENE 18:10:49 37° ESE 18:15:21 10° S visible
28 Nov 4.3 19:48:58 27° WNW 19:48:58 27° WNW 19:52:23 10° WSW visible
29 Nov 4.6 03:40:00 10° ESE 03:42:58 22° ENE 03:42:58 22° ENE visible
29 Nov 2.7 05:16:23 10° S 05:21:06 47° WSW 05:22:48 34° WNW visible
29 Nov 4.2 17:26:58 11° ENE 17:28:56 13° ESE 17:31:17 10° SE visible
29 Nov 2.5 19:06:49 72° NW 19:06:54 72° WNW 19:11:48 10° SW visible
30 Nov 2.7 04:34:41 10° SE 04:39:33 64° ENE 04:40:31 52° N visible
30 Nov 4.1 06:14:37 10° SW 06:17:27 15° WSW 06:20:17 10° WNW visible
30 Nov 2.8 18:24:40 40° E 18:25:19 42° ESE 18:29:57 10° S visible
30 Nov 4.8 20:04:31 20° W 20:04:31 20° W 20:06:39 10° WSW visible
01 Dec 4.3 03:54:15 10° ESE 03:58:14 26° NE 03:58:14 26° NE visible
01 Dec 2.9 05:30:57 10° S 05:35:36 42° WSW 05:38:05 24° NW visible
01 Dec 4.0 17:42:31 15° E 17:43:28 15° ESE 17:46:18 10° SE visible
01 Dec 3.1 19:22:21 51° WSW 19:22:21 51° WSW 19:26:13 10° SW visible
02 Dec 5.5 03:15:49 10° ENE 03:15:57 10° ENE 03:15:57 10° ENE visible
02 Dec 2.6 04:49:06 10° SE 04:54:00 73° ENE 04:55:47 40° NNW visible
02 Dec 4.2 06:29:38 10° SW 06:31:58 13° WSW 06:34:19 10° WNW visible
02 Dec 2.7 18:40:12 46° SE 18:40:12 46° SE 18:44:32 10° S visible
02 Dec 5.2 20:20:03 14° W 20:20:03 14° W 20:20:53 10° WSW visible
